SCOUT A R/B, 2811

Orbit data source: Space-Track

SCOUT A R/B, 2811 is space debris in LEO originally from a launch on Thu, 18 May 1967 UTC launched from the Air Force Western Test Range (AFWTR). Debris objects in space refer to the collection of defunct objects orbiting the Earth. Examples of debris include non-operational satellites, rocket bodies, and fragments generated from explosions, collisions, or faulty payload assembly.

Loading next visibility...
Identifier
2811, 1967-048B
Orbit
LEO
Country
Flag of USUS
Related business
Manufacturer
ABL
Mission
Spacecraft
Bus & Motor
ALTAIR, Unknown motor
Mass
33 kg wet, 33 kg dry
Launch date (UTC)
1967-05-18 (58 years ago)
Launch vehicle
Unknown
Launch site
Air Force Western Test Range (AFWTR)
Object type
Payload
Rocket body
Debris
Shape & HBR
Cyl, 0.8 m
Radar Cross Section
0.687 m², Medium (>0.1 m² and < 1m²)

Expand to show TLE details & history
Last TLE update: 12 hours ago

TLE from 12 hours ago
0 SCOUT A R/B
1 02811U 67048B   25258.79531815  .00000065  00000-0  86522-4 0  9996
2 02811  89.6855 359.7569 0021307  73.2532  39.1457 13.49287546869500
Epoch: 2025-09-15T19:05Z
TLE epoch observation values (Epoch: 2025-09-15T19:05:15.488Z)
Latitude
67.52099°
Longitude
-102.30866°
Altitude
1,074.346 km
Speed
7.327 km/s
True Right ascension
11h 56m 00s
True Declination
67° 24' 16"
Sunlit
Object was in daylight at epoch
Visualization orbit readout
Latitude
Unknown
Longitude
Unknown
Altitude
Unknown
Speed
Unknown
Apparent Right ascension
Unknown
Apparent Declination
Unknown
Sunlit
N/A
Visualization observer readout
Local Sidereal Time
00:01:45
Azimuth
Unknown
Elevation
Unknown
Doppler factor
Unknown
Orbital elements
Apogee altitude
1,087.806 km
Perigee altitude
1,056.058 km
Semi-major axis
7,450.069 km
Eccentricity
0.00213
Inclination
89.6855°
RAAN
359.7569°
Arg. of periapsis
73.2532°
True anomaly
39.30016°
Mean anomaly
39.1457°
Eccentric anomaly
39.2229°
Mean motion
3.37522 °/min
Orbital period
106.66 mins
BSTAR
0.000086522
Loading maneuver chart data...
Computing Atmospheric mass density...
Loading historical data...
Loading historical data...
Loading historical data...
Loading historical data...
Loading historical data...
Loading historical data...
Loading historical data...

Documentation

Showing up to 5 results
|